Regional Weather Roundup
Issued by NWS

Home | Current Version | Previous Version | Graphics & Text | Print | Product List | Glossary On
Versions: 1 2 3 4 5 6 7 8 9 10 11 12 13 14 15 16 17 18 19 20 21 22 23 24 25 26 27 28 29 30 31 32 33 34 35 36 37 38 39 40 41 42 43 44 45 46 47 48 49 50
000
ASUS43 KMPX 241901
RWRMN
WEATHER ROUNDUP FOR MINNESOTA
NATIONAL WEATHER SERVICE TWIN CITIES/CHANHASSEN MN
100 PM CST WED DEC 24 2014


NOTE: "FAIR" INDICATES FEW OR NO CLOUDS BELOW 12,000 FEET WITH NO
SIGNIFICANT WEATHER AND/OR OBSTRUCTIONS TO VISIBILITY. N/A MEANS
CURRENT SKY AND/OR WEATHER CONDITIONS ARE NOT AVAILABLE.

MNZ060>063-068>070-242000-
   Twin Cities Metro

CITY           SKY/WX    TMP DP  RH WIND       PRES   REMARKS
TWIN CITIES    CLOUDY    35  30  82 NW13      29.68F WCI  26
ST PAUL        CLOUDY    35  31  85 NW12      29.68F WCI  27
CRYSTAL        CLOUDY    36  30  79 NW7       29.66F
BLAINE         CLOUDY    37  34  87 NW9       29.67F
LAKEVILLE      CLOUDY    34  30  86 NW13      29.67F WCI  25
EDEN PRAIRIE   CLOUDY    35  30  82 W8        29.66F WCI  29
SOUTH ST PAUL  CLOUDY    36  32  87 NW7       29.67F
LAKE ELMO      CLOUDY    36  32  87 NW7       29.67F
$$
MNZ001>005-007-008-013>017-022>024-027-028-242000-
   Northwest Minnesota

CITY           SKY/WX    TMP DP  RH WIND       PRES   REMARKS
BEMIDJI        CLOUDY    31  29  93 W3        29.64F
HALLOCK        CLOUDY    28  27  93 S16       29.62F WCI  17
ROSEAU         CLOUDY    30  27  86 S8        29.63F WCI  23
WARROAD        CLOUDY    30  27  86 S5        29.64F WCI  25
THIEF RVR FALL CLOUDY    28  27  93 SW10      29.65F WCI  19
CROOKSTON      CLOUDY    27  25  93 SW14      29.67F WCI  15
FOSSTON        CLOUDY    27  27 100 SW9       29.66F WCI  17
DETROIT LAKES  CLOUDY    30  30 100 W6        29.68F WCI  24
MOORHEAD       CLOUDY    27  27 100 SW8       29.70F WCI  18
PARK RAPIDS    CLOUDY    33  29  85 SW7       29.64F WCI  27
MAHNOMEN       CLOUDY    28  27  93 W10       29.67F WCI  19
$$
MNZ006-009>011-018-025>026-242000-
   North Central Minnesota

CITY           SKY/WX    TMP DP  RH WIND       PRES   REMARKS
BAUDETTE       CLOUDY    32  30  92 SW3       29.63F
FLAG ISLAND    CLOUDY    30  28  93 SW5       29.61F WCI  25
INTL FALLS     LGT SNOW  33  31  92 CALM      29.63F FOG
WASKISH        CLOUDY    32  30  93 CALM      29.64F
BIG FORK       LGT SNOW  34  32  93 CALM      29.63F
LONGVILLE      CLOUDY    32  30  93 SW3       29.64F
GRAND RAPIDS   CLOUDY    32  30  93 CALM      29.63F
CRANE LAKE     CLOUDY    30  30 100 CALM      29.65F
ORR            LGT SNOW  32  30  93 CALM      29.61F
COOK           CLOUDY    30  30 100 CALM      29.64F
WALKER         CLOUDY    31  30  95 W3        29.65F
$$
MNZ012-019>021-037-242000-
   Northeast Minnesota

CITY           SKY/WX    TMP DP  RH WIND       PRES   REMARKS
DULUTH         PTSUNNY   34  27  75 N5        29.62F WCI  30
ELY            CLOUDY    32  28  86 CALM      29.62F
HIBBING        CLOUDY    34  30  85 SW3       29.63F
EVELETH        CLOUDY    32  30  93 CALM      29.64F
DULUTH HARBOR  CLOUDY    36  30  80 CALM      29.65F
TWO HARBORS    CLOUDY    37  30  75 NW3       29.61F
SILVER BAY     CLOUDY    37  28  70 CALM      29.60F
GRAND MARAIS     N/A     36  31  82 W3        29.62F
G MARAIS ARPRT CLOUDY    28  25  86 NW3       29.59F FOG
$$
MNZ029>031-032-039>041-046>048-054>057-064-242000-
   West Central Minnesota

CITY           SKY/WX    TMP DP  RH WIND       PRES   REMARKS
FERGUS FALLS   CLOUDY    27  27 100 W9        29.73F WCI  17
WHEATON        CLOUDY    25  23  93 SW7       29.74F WCI  17
MORRIS         CLOUDY    28  28 100 W10       29.70F WCI  19
ALEXANDRIA     CLOUDY    30  28  92 W9        29.68F WCI  22
ELBOW LAKE     CLOUDY    28  27  96 W8        29.70F WCI  20
WADENA         CLOUDY    28  28 100 W7        29.66F WCI  21
GLENWOOD       CLOUDY    30  28  93 W9        29.68F FOG     WCI  22
APPLETON       LGT SNOW  30  28  93 W9        29.72F WCI  22
BENSON         MIX PCPN  30  28  93 NW12      29.71F WCI  21
ORTONVILLE     CLOUDY    28  25  86 W8        29.71F WCI  20
MADISON          N/A     34  30  86 W8        29.73F WCI  27
WILLMAR        CLOUDY    32  30  93 NW8       29.70F WCI  25
$$
MNZ033>034-036-042>043-049>051-058-059-242000-
   Central Minnesota

CITY           SKY/WX    TMP DP  RH WIND       PRES   REMARKS
ST CLOUD       CLOUDY    36  31  82 NW7       29.67F
SAUK CENTRE    CLOUDY    31  29  94 NW6       29.67F WCI  25
PAYNESVILLE    CLOUDY    30  29  97 SW7       29.69F WCI  23
AITKIN         CLOUDY    37  30  75 W3        29.63F
PINE RIVER     CLOUDY    32  30  93 CALM      29.69F
BRAINERD       CLOUDY    33  30  88 NW7       29.66F WCI  27
STAPLES        CLOUDY    30  30 100 W3        29.66F
LONG PRAIRIE   CLOUDY    32  30  93 SW3       29.67F
LITTLE FALLS   CLOUDY    32  30  93 W5        29.67F WCI  27
LITCHFIELD     CLOUDY    34  34 100 W6        29.68F WCI  29
BUFFALO        CLOUDY    34  31  88 W9        29.68F WCI  27
MAPLE LAKE     CLOUDY    34  33  96 W5        29.68F WCI  30
$$
MNZ037-044-045-052-053-242000-
   East Central Minnesota

CITY           SKY/WX    TMP DP  RH WIND       PRES   REMARKS
PRINCETON      CLOUDY    36  32  87 W5        29.66F
MORA           CLOUDY    34  28  80 N3        29.67F
CAMBRIDGE      CLOUDY    37  28  70 W3        29.64F
RUSH CITY      CLOUDY    35  32  90 NW3       29.66F
MOOSE LAKE     CLOUDY    32  32 100 W5        29.64F WCI  27
HINCKLEY       CLOUDY    34  32  93 CALM      29.65F
CLOQUET        CLOUDY    34  28  80 W5        29.63F WCI  30
MCGREGOR       CLOUDY    32  32 100 CALM      29.65F
$$
MNZ071>073-080-081-089-090-097-098-242000-
   Southwest Minnesota

CITY           SKY/WX    TMP DP  RH WIND       PRES   REMARKS
MONTEVIDEO     CLOUDY    30  30 100 NW9       29.72F WCI  22
GRANITE FALLS  CLOUDY    31  28  90 W12       29.73F WCI  22
CANBY          CLOUDY    30  27  90 W8        29.73F WCI  22
MARSHALL       CLOUDY    30  25  80 W9        29.72F WCI  22
REDWOOD FALLS  CLOUDY    32  29  88 NW8       29.71F WCI  25
OLIVIA         CLOUDY    30  30 100 NW9       29.70F WCI  22
PIPESTONE      CLOUDY    27  27 100 W7        29.72F WCI  19
WINDOM         CLOUDY    30  30 100 NW10G17   29.70F WCI  21
WORTHINGTON    CLOUDY    30 -17  12 W10       29.72F WCI  21
JACKSON        CLOUDY    32  30  93 NW12      29.70F WCI  23
TRACY          CLOUDY    32  29  91 W8        29.72F WCI  25
SLAYTON        CLOUDY    30  29  97 W8        29.71F WCI  22
$$
MNZ065>067-074>077-082>085-091>093-242000-
   South Central Minnesota

CITY           SKY/WX    TMP DP  RH WIND       PRES   REMARKS
MANKATO        CLOUDY    34  28  80 NW12      29.69F WCI  25
NEW ULM        CLOUDY    30  30 100 NW8       29.69F FOG     WCI  23
ST JAMES       CLOUDY    34  32  93 NW12      29.71F FOG     WCI  25
FAIRMONT       CLOUDY    32  28  86 N10       29.70F WCI  24
GLENCOE        CLOUDY    35  33  94 NW7       29.68F WCI  29
FARIBAULT      CLOUDY    36  30  80 NW8       29.68F
OWATONNA       PTSUNNY   34  30  86 NW13      29.67F WCI  25
ALBERT LEA     CLOUDY    34  34 100 NW9       29.67F WCI  26
$$
MNZ078>079-086>088-094>096-242000-
   Southeast Minnesota

CITY           SKY/WX    TMP DP  RH WIND       PRES   REMARKS
ROCHESTER      CLOUDY    33  30  88 NW14      29.64F WCI  23
RED WING       CLOUDY    37  32  81 NW8       29.65F
STANTON        CLOUDY    35  32  87 NW9       29.66F WCI  28
DODGE CENTER   CLOUDY    34  32  93 NW10      29.65F WCI  26
WINONA         CLOUDY    37  34  87 NW8       29.61F
AUSTIN         CLOUDY    34  30  86 NW12      29.66F WCI  25
PRESTON        CLOUDY    33  31  92 NW14      29.62F WCI  23
$$
ABBREVIATIONS USED IN REMARKS
   TC - TEMPERATURES IN CELSIUS
  WCI - WIND CHILL INDEX
   HX - HEAT INDEX
  VSB - VISIBILITY
$$



USA.gov is the U.S. government's official web portal to all federal, state and local government web resources and services.